Theta_e
286 287 287 284 282 283 282 285 281 285 284 289 291 291 292 293 292 291 290 291 295 296 299 301 301 302 301 300 298 298 296 296 296 297 297 298 298 299 299 299 300 302 302 302
282 286 285 284 285 284 284 285 285 286 285 292 294 294 292 293 291 291 290 291 292 295 296 298 298 301 301 299 298 298 296 295 296 297 296 297 297 298 298 299 299 301 301 302
279 284 283 279 284 285 284 287 287 283 288 292 292 295 294 293 292 292 291 292 293 295 295 297 298 300 299 298 298 297 296 295 296 296 296 296 297 297 297 297 299 300 301 302
279 282 274 284 291 290 288 288 290 290 292 294 294 295 296 296 293 292 292 292 293 294 296 296 297 296 297 297 297 296 295 295 295 295 294 295 295 295 296 297 298 299 300 302
275 276 281 283 287 287 286 287 291 290 292 293 294 294 293 297 296 294 293 294 293 294 295 295 295 296 297 295 295 295 295 295 294 294 293 293 294 294 295 296 297 298 300 301
275 272 271 283 289 293 292 282 293 292 292 292 293 288 293 295 295 295 294 293 293 293 293 293 293 294 294 293 293 293 294 294 294 293 294 294 293 294 294 296 295 296 297 300
274 273 278 286 289 292 280 283 293 295 295 294 291 294 295 296 295 295 294 292 292 292 292 291 291 291 289 289 290 290 290 290 291 293 293 294 294 293 293 292 291 290 291 291
276 274 271 287 289 283 287 293 294 294 296 295 294 297 296 294 293 293 291 291 290 289 289 289 289 290 288 288 287 288 288 288 289 290 291 292 290 289 289 289 289 289 288 288
279 279 285 287 288 292 291 289 290 290 292 296 297 297 297 293 293 292 290 289 288 287 285 284 285 288 287 285 286 287 287 286 286 286 287 287 288 288 288 288 287 287 287 286
281 282 283 287 288 289 292 292 291 291 291 292 293 296 297 292 291 290 288 287 286 285 284 284 283 284 285 286 286 287 286 286 286 286 287 287 287 288 288 288 287 286 286 286
281 283 285 286 288 290 290 291 290 291 291 291 291 293 292 290 289 288 286 284 285 285 284 284 284 285 286 286 287 286 286 286 286 287 287 287 286 287 287 286 288 287 286 286
278 283 285 286 289 290 289 287 290 289 289 289 290 291 288 287 287 286 284 284 283 283 284 284 284 284 285 286 287 286 285 285 286 286 286 286 286 286 289 289 290 290 290 288
282 286 286 286 288 288 288 288 287 286 288 289 289 288 286 285 284 282 283 283 283 284 284 284 284 284 285 286 287 286 285 285 285 286 286 286 285 285 284 287 289 290 290 290
284 285 283 284 284 286 284 285 282 281 283 287 286 283 284 283 282 281 282 282 283 284 283 283 283 283 285 285 286 286 286 286 286 286 286 286 286 286 285 285 284 284 287 287
284 285 285 285 282 283 282 282 278 279 281 281 282 283 283 282 282 282 283 283 282 281 280 279 279 278 282 284 284 284 283 283 283 283 283 283 283 284 284 284 284 284 285 285
283 282 282 281 283 281 279 280 283 283 283 281 281 280 282 282 280 280 279 278 278 277 276 276 275 277 281 281 281 281 282 282 282 282 282 281 281 280 281 282 282 282 282 282
277 278 277 280 285 282 282 283 284 284 282 282 282 278 277 276 275 277 278 276 276 276 276 275 274 278 279 280 280 280 281 281 281 281 280 279 278 278 279 281 281 281 280 282
273 276 276 278 281 283 281 283 284 284 281 280 277 277 276 277 275 273 273 273 272 271 271 272 274 275 277 279 279 279 280 280 280 280 281 280 279 278 279 280 280 280 280 280
266 269 272 274 276 280 281 283 283 282 277 277 277 277 277 274 273 272 274 273 272 270 269 272 274 274 275 276 277 276 276 275 274 273 275 274 273 271 273 274 274 272 273 276
263 265 269 271 274 278 280 281 280 277 277 277 278 274 273 272 273 273 275 273 273 270 271 271 272 272 274 275 276 274 273 272 271 270 270 268 267 265 265 265 266 266 265 264
261 264 267 271 274 278 281 278 278 276 277 278 274 273 272 273 275 272 272 269 268 270 270 270 270 270 272 273 273 272 271 270 269 267 266 265 265 264 264 262 262 264 262 263
261 265 268 274 278 274 275 278 278 277 276 275 274 273 273 271 272 268 271 268 267 269 270 269 269 269 271 271 271 270 269 268 267 266 265 264 264 264 263 263 262 261 261 260
262 266 269 275 275 274 277 278 277 276 275 273 273 273 272 270 270 268 264 266 268 268 267 267 268 270 270 269 269 268 266 266 265 265 263 263 263 263 262 261 261 261 259 259
267 270 271 274 275 275 274 275 275 274 274 274 273 271 269 266 265 267 267 268 267 267 267 268 269 270 268 267 267 266 265 264 263 263 262 262 262 262 263 263 261 260 259 259
264 268 270 270 269 267 268 269 268 268 267 267 268 268 269 269 267 266 267 267 268 266 266 268 268 267 266 265 265 264 263 261 261 260 259 259 258 257 256 258 258 258 257 258
265 266 267 267 267 267 268 268 267 267 266 265 265 266 266 266 266 265 265 265 264 263 263 263 264 263 263 263 262 261 260 260 259 259 258 258 258 257 257 257 257 258 256 255
260 264 266 267 268 268 268 268 267 266 266 265 263 264 264 264 264 264 264 263 262 262 262 261 262 261 261 261 259 258 258 257 259 258 256 256 256 257 257 257 255 254 255 255
Wind_Speed
22 18 7 19 17 17 21 28 16 29 19 16 7 7 7 8 7 7 7 9 9 9 9 12 12 12 12 11 11 10 10 9 8 7 7 7 7 7 6 6 6 5 5 4
16 22 17 18 17 22 25 27 22 27 24 5 9 7 6 8 9 8 10 10 9 9 10 11 12 14 13 11 11 11 11 9 9 8 8 7 7 7 7 6 6 6 5 5
19 22 19 20 24 19 23 26 25 20 35 6 8 10 8 10 13 13 11 13 13 14 12 10 11 12 13 12 12 12 10 8 9 9 8 8 7 7 7 6 6 6 5 5
16 11 27 17 24 24 20 21 23 26 30 19 14 6 10 9 11 12 12 14 14 12 9 7 8 8 8 11 12 11 10 10 8 9 8 8 8 7 6 6 6 5 5 5
8 17 14 6 12 24 25 29 21 22 28 28 12 3 13 14 10 10 13 15 14 13 12 10 11 10 12 10 10 10 10 10 9 10 9 8 8 7 5 5 5 5 5 6
14 11 16 12 14 14 20 23 21 20 26 26 14 13 26 9 8 10 11 11 13 15 13 13 10 10 12 11 11 11 10 10 9 9 10 9 8 7 5 5 5 5 4 3
19 15 13 17 10 12 20 13 23 27 30 29 14 21 10 10 12 9 9 11 10 13 15 15 14 13 12 10 11 8 8 8 8 8 9 9 8 4 6 5 6 5 5 3
18 22 30 4 4 6 8 13 16 17 26 28 11 19 14 5 8 11 14 12 11 11 9 11 14 14 12 10 7 8 8 8 8 7 6 7 8 5 6 6 6 5 4 2
12 6 2 5 5 4 5 5 7 13 13 11 21 20 17 11 14 14 16 14 11 14 13 7 6 12 14 9 10 11 10 8 6 7 6 7 8 7 5 6 6 4 3 2
3 5 6 8 4 4 2 5 5 9 12 11 13 12 17 10 13 14 14 14 11 14 13 13 8 7 12 12 11 12 12 9 8 9 9 7 5 5 5 4 4 4 3 2
7 6 2 7 6 3 6 3 4 10 9 10 11 11 5 9 13 13 13 11 13 14 13 13 12 14 13 14 13 13 12 9 9 7 9 7 5 4 5 3 4 4 2 3
6 9 7 6 9 8 7 5 3 9 11 8 9 10 5 6 8 13 14 13 12 13 15 13 15 15 14 12 12 14 13 8 7 8 7 6 7 6 9 8 10 10 9 5
4 5 5 5 9 6 5 7 7 9 11 14 9 4 8 7 6 4 12 14 15 17 16 17 17 14 12 11 11 12 14 10 8 7 7 7 6 6 7 6 12 11 11 10
4 7 3 5 9 11 6 6 4 6 6 8 6 3 7 11 12 11 8 11 15 18 16 17 16 14 10 11 12 16 12 13 8 6 6 6 6 6 6 6 5 4 10 9
9 7 2 4 3 6 6 6 6 4 4 4 2 9 12 15 14 13 14 11 15 16 16 15 16 10 9 11 14 16 11 8 8 6 5 6 5 6 5 5 5 5 3 6
3 6 7 7 6 4 4 6 3 3 3 3 5 7 9 12 15 15 15 14 17 14 15 15 13 9 11 13 15 12 11 14 10 7 6 6 5 6 6 5 4 4 4 3
5 7 3 7 11 5 6 4 3 8 5 6 7 10 14 15 16 17 15 12 11 13 13 14 13 11 13 13 13 9 9 9 11 8 7 6 5 4 4 5 5 4 4 3
5 4 2 4 5 6 6 6 6 10 10 8 12 13 14 16 17 16 17 19 16 14 11 10 12 13 12 13 12 9 9 9 8 8 7 6 5 4 4 5 4 4 4 4
4 6 6 3 6 6 5 6 9 10 15 14 13 13 13 13 14 15 18 20 17 17 8 9 15 13 14 12 11 9 10 10 9 6 6 8 6 4 5 5 5 4 4 4
6 7 7 8 8 10 8 4 8 9 13 13 12 14 16 15 14 16 17 16 9 10 12 12 12 12 12 13 13 9 10 10 10 7 6 6 5 5 5 5 5 4 4 3
5 6 7 9 8 7 6 9 11 12 14 13 16 16 17 16 15 15 19 15 9 11 13 13 10 8 8 11 10 9 9 10 9 7 7 6 6 5 5 5 4 4 3 3
8 7 7 5 4 2 4 8 9 11 14 14 15 17 19 16 13 10 9 16 11 15 10 9 8 10 10 13 9 9 10 10 8 6 6 5 5 5 5 4 5 4 3 3
9 8 6 6 6 5 5 8 9 11 14 15 17 17 15 11 9 14 15 7 8 11 9 9 13 14 13 9 9 10 10 9 8 7 5 4 5 5 4 4 4 4 3 3
9 5 2 2 7 8 9 7 11 11 14 14 14 13 14 12 12 11 13 15 18 14 10 10 12 14 11 8 10 10 9 8 7 6 5 5 4 4 4 4 4 3 3 4
6 1 2 6 7 5 10 12 14 13 16 15 15 13 12 7 10 11 11 12 18 13 11 13 14 11 8 9 9 8 7 7 6 6 5 5 4 4 3 3 3 3 3 2
5 4 5 5 5 6 8 9 10 9 12 11 10 11 12 12 13 13 11 14 12 13 10 7 5 7 9 9 8 7 6 5 4 4 5 4 4 3 3 4 3 3 2 1
6 7 6 7 4 5 7 9 10 10 10 11 12 11 13 12 12 13 14 12 10 10 7 6 7 8 8 8 7 6 4 4 4 4 3 3 2 2 3 3 3 2 1 1
Wind_Direction
231 251 212 198 191 213 220 222 211 237 236 224 205 203 192 193 174 161 172 184 179 175 174 173 171 170 166 165 157 158 157 155 162 157 155 160 153 153 158 162 169 171 159 167
240 240 237 243 212 206 210 227 227 242 261 163 218 245 179 182 171 185 195 189 193 177 172 184 176 169 166 165 158 158 160 163 153 154 155 156 153 153 157 163 169 163 164 176
242 232 231 235 230 211 230 232 213 228 241 271 229 217 214 213 189 194 200 193 190 190 181 173 180 170 168 160 153 160 156 154 156 157 155 154 151 154 159 169 166 170 179 176
255 238 228 219 223 219 217 238 228 236 245 236 242 254 223 228 185 198 186 185 194 185 171 170 161 153 142 147 154 156 155 158 151 151 152 152 153 159 161 165 170 168 179 180
259 242 268 218 206 201 205 226 227 236 251 250 240 272 251 216 192 187 185 192 193 180 163 158 161 156 148 143 152 153 157 159 155 153 153 153 157 159 159 151 166 165 170 173
257 243 274 208 226 204 212 238 216 223 243 246 232 234 250 159 180 205 185 168 167 166 152 151 161 146 151 153 155 167 160 158 154 147 151 156 157 162 154 149 150 152 141 150
239 247 249 261 292 271 220 224 218 223 235 242 213 227 259 182 196 180 153 149 142 154 157 156 150 145 151 152 168 154 141 138 141 144 149 151 146 137 136 127 123 121 120 103
228 239 241 221 319 287 307 254 246 221 237 247 197 238 230 184 155 150 146 143 147 144 146 154 152 149 147 159 137 131 128 129 134 138 137 136 133 124 125 129 126 140 148 158
190 203 277 173 206 135 301 291 354 351 337 281 222 227 207 186 173 169 158 157 151 149 139 134 144 149 139 144 133 125 120 120 118 110 112 116 126 128 125 128 142 151 145 143
129 181 214 224 240 243 144 312 5 320 307 309 302 285 228 160 156 156 155 156 146 145 147 143 130 113 129 141 132 127 123 126 134 120 112 102 107 122 128 134 133 142 148 145
196 180 155 282 238 218 301 155 309 295 295 291 294 300 204 155 160 158 152 143 152 151 148 143 133 132 141 139 136 124 128 133 113 127 108 110 92 112 114 86 134 138 144 130
201 189 162 184 192 202 233 268 243 285 300 281 275 260 160 148 158 150 148 148 144 138 137 138 138 137 133 133 134 143 122 119 134 117 111 114 113 100 87 107 105 107 114 116
178 171 189 159 176 183 225 256 239 218 263 267 272 186 129 128 118 117 143 147 148 143 137 140 136 128 120 128 147 133 117 136 114 117 122 130 129 123 125 83 87 90 96 90
209 131 187 196 221 190 198 233 274 309 301 247 202 127 129 124 125 132 153 143 137 137 133 136 130 115 123 132 133 109 115 107 112 118 125 128 129 135 127 128 117 83 60 68
241 217 317 284 180 186 176 223 78 325 342 276 157 138 139 140 143 134 123 131 129 127 123 124 116 109 119 124 114 106 108 104 104 99 88 97 101 98 96 101 108 108 98 53
206 225 213 214 226 210 193 45 97 52 303 308 129 142 144 127 119 119 121 132 139 134 126 118 115 119 114 109 98 99 100 102 105 110 110 103 90 93 101 102 92 85 66 33
166 248 235 233 227 214 209 158 226 161 176 194 133 117 122 121 119 126 119 108 111 113 114 120 120 115 102 97 108 105 108 108 111 104 102 99 97 102 102 114 112 104 93 78
22 331 344 346 283 201 198 172 191 196 172 139 139 142 143 147 140 135 126 114 107 94 93 112 109 93 100 104 108 113 112 110 109 108 115 109 101 91 101 109 121 114 107 68
347 313 305 298 290 288 246 192 182 201 137 149 151 153 143 131 136 133 130 122 130 124 119 106 103 107 101 105 111 109 108 110 101 95 99 96 90 80 79 77 80 70 61 61
293 254 252 254 246 245 239 163 135 175 142 145 146 130 129 134 140 138 131 116 111 117 122 114 111 106 109 109 109 110 115 116 113 109 108 107 107 103 98 91 90 82 75 65
273 259 250 249 253 241 198 144 157 180 138 143 143 144 141 140 144 139 131 113 120 122 119 119 115 113 114 112 107 109 116 111 110 117 119 119 115 106 100 96 88 84 67 67
307 296 279 250 212 134 137 150 166 155 132 142 138 140 137 128 132 83 61 124 134 130 123 113 111 113 112 108 108 115 105 104 107 108 102 103 104 107 105 101 100 96 91 79
286 277 270 213 179 140 147 148 141 145 136 138 142 140 133 125 140 134 115 122 113 106 102 108 115 113 111 111 116 103 103 106 106 104 95 103 107 106 108 113 106 102 96 84
284 260 245 121 124 135 132 128 116 122 120 119 120 118 128 121 83 80 102 115 111 105 104 111 114 109 117 116 102 104 105 106 108 106 115 109 107 103 108 108 98 101 91 73
279 316 58 90 106 108 104 102 95 98 103 104 102 96 91 76 104 118 112 110 101 99 103 100 96 108 101 90 94 103 110 113 116 121 115 106 106 116 117 109 103 95 86 88
23 79 90 92 114 115 115 118 121 120 112 109 92 95 97 101 101 102 98 100 98 100 83 93 102 87 87 90 90 89 88 94 100 92 108 121 121 123 121 114 107 97 111 176
26 26 67 83 84 110 108 115 117 109 109 111 111 112 112 111 111 109 107 102 96 94 103 91 86 84 86 89 89 85 91 98 94 102 88 115 115 121 113 107 110 112 64 19